| time (UTC) | temp F | wind direction | speed MPH | gust MPH | rain 1hr in | rain 24hr in | rain mn in | humidity % | barometer mb |
| 20260508061849 | 50 | 2 | 0.0 | 1.0 | 0.00 | 0.00 | 0.00 | 8 | 1015.8 |
| 20260508061348 | 50 | 0 | 0.0 | 0.0 | 0.00 | 0.00 | 0.00 | 8 | 1015.7 |
| 20260508060848 | 49 | 0 | 0.0 | 0.0 | 0.00 | 0.00 | 0.00 | 8 | 1016.0 |
| 20260508060348 | 50 | 0 | 0.0 | 0.0 | 0.00 | 0.00 | 0.00 | 8 | 1015.9 |
| 20260508055847 | 50 | 358 | 0.0 | 1.0 | 0.00 | 0.00 | 0.00 | 8 | 1015.7 |
| 20260508055347 | 50 | 0 | 0.0 | 0.0 | 0.00 | 0.00 | 0.00 | 8 | 1015.8 |
| 20260508054847 | 50 | 0 | 0.0 | 0.0 | 0.00 | 0.00 | 0.00 | 8 | 1015.7 |
| 20260508054346 | 50 | 351 | 0.0 | 1.0 | 0.00 | 0.00 | 0.00 | 8 | 1015.6 |
| 20260508053846 | 50 | 0 | 0.0 | 0.0 | 0.00 | 0.00 | 0.00 | 8 | 1015.7 |
| 20260508053346 | 50 | 0 | 0.0 | 0.0 | 0.00 | 0.00 | 0.00 | 8 | 1015.5 |
| 20260508052845 | 50 | 344 | 0.0 | 1.0 | 0.00 | 0.00 | 0.00 | 8 | 1015.5 |
| 20260508052345 | 49 | 56 | 0.0 | 1.0 | 0.00 | 0.00 | 0.00 | 8 | 1015.4 |
| 20260508051845 | 50 | 335 | 0.0 | 1.0 | 0.00 | 0.00 | 0.00 | 8 | 1015.3 |
| 20260508051344 | 50 | 0 | 0.0 | 0.0 | 0.00 | 0.00 | 0.00 | 8 | 1015.6 |
| 20260508050844 | 50 | 0 | 0.0 | 0.0 | 0.00 | 0.00 | 0.00 | 8 | 1015.3 |
| 20260508050344 | 49 | 0 | 0.0 | 0.0 | 0.00 | 0.00 | 0.00 | 8 | 1015.3 |
| 20260508045843 | 50 | 0 | 0.0 | 0.0 | 0.00 | 0.00 | 0.00 | 8 | 1015.5 |
| 20260508045343 | 49 | 0 | 0.0 | 0.0 | 0.00 | 0.00 | 0.00 | 8 | 1015.5 |
| 20260508044843 | 50 | 332 | 0.0 | 1.0 | 0.00 | 0.00 | 0.00 | 8 | 1015.4 |
| 20260508044342 | 50 | 0 | 0.0 | 0.0 | 0.00 | 0.00 | 0.00 | 8 | 1015.3 |
| 20260508043842 | 50 | 0 | 0.0 | 0.0 | 0.00 | 0.00 | 0.00 | 8 | 1015.5 |
| 20260508043342 | 49 | 0 | 0.0 | 0.0 | 0.00 | 0.00 | 0.00 | 8 | 1015.4 |
| 20260508042841 | 49 | 353 | 0.0 | 1.0 | 0.00 | 0.00 | 0.00 | 8 | 1015.1 |
| 20260508042341 | 49 | 0 | 0.0 | 0.0 | 0.00 | 0.00 | 0.00 | 8 | 1015.3 |
| 20260508041841 | 49 | 0 | 0.0 | 1.0 | 0.00 | 0.00 | 0.00 | 8 | 1015.2 |
| 20260508041340 | 49 | 339 | 0.0 | 1.0 | 0.00 | 0.00 | 0.00 | 8 | 1015.2 |
| 20260508040840 | 49 | 0 | 0.0 | 0.0 | 0.00 | 0.00 | 0.00 | 8 | 1015.2 |
| 20260508040340 | 49 | 0 | 0.0 | 0.0 | 0.00 | 0.00 | 0.00 | 8 | 1015.2 |
| 20260508035839 | 49 | 0 | 0.0 | 0.0 | 0.00 | 0.00 | 0.00 | 8 | 1015.2 |
| 20260508035339 | 50 | 0 | 0.0 | 0.0 | 0.00 | 0.00 | 0.00 | 8 | 1015.2 |
| 20260508034839 | 49 | 0 | 0.0 | 0.0 | 0.00 | 0.00 | 0.00 | 8 | 1015.2 |
| 20260508034338 | 49 | 0 | 0.0 | 0.0 | 0.00 | 0.00 | 0.00 | 8 | 1015.2 |
| 20260508033838 | 49 | 0 | 0.0 | 0.0 | 0.00 | 0.00 | 0.00 | 8 | 1015.1 |
| 20260508033338 | 49 | 0 | 0.0 | 0.0 | 0.00 | 0.00 | 0.00 | 8 | 1015.3 |
| 20260508032837 | 49 | 0 | 0.0 | 0.0 | 0.00 | 0.00 | 0.00 | 8 | 1015.3 |
| 20260508032337 | 49 | 353 | 0.0 | 1.0 | 0.00 | 0.00 | 0.00 | 8 | 1015.2 |
| 20260508031837 | 50 | 1 | 0.0 | 1.0 | 0.00 | 0.00 | 0.00 | 8 | 1015.2 |
| 20260508031336 | 50 | 0 | 0.0 | 0.0 | 0.00 | 0.00 | 0.00 | 8 | 1015.2 |
| 20260508030836 | 50 | 0 | 0.0 | 0.0 | 0.00 | 0.00 | 0.00 | 8 | 1015.2 |
| 20260508030336 | 50 | 334 | 0.0 | 1.0 | 0.00 | 0.00 | 0.00 | 8 | 1015.2 |
| 20260508025835 | 50 | 13 | 0.0 | 1.0 | 0.00 | 0.00 | 0.00 | 8 | 1015.3 |
| 20260508025335 | 50 | 0 | 0.0 | 0.0 | 0.00 | 0.00 | 0.00 | 8 | 1015.0 |
| 20260508024835 | 50 | 0 | 0.0 | 0.0 | 0.00 | 0.00 | 0.00 | 8 | 1014.9 |
| 20260508024334 | 50 | 0 | 0.0 | 0.0 | 0.00 | 0.00 | 0.00 | 8 | 1014.8 |
| 20260508023834 | 50 | 0 | 0.0 | 0.0 | 0.00 | 0.00 | 0.00 | 8 | 1014.7 |
| 20260508023334 | 50 | 0 | 0.0 | 0.0 | 0.00 | 0.00 | 0.00 | 8 | 1014.9 |
| 20260508022833 | 50 | 0 | 0.0 | 0.0 | 0.00 | 0.00 | 0.00 | 8 | 1014.9 |
| 20260508022333 | 50 | 0 | 0.0 | 0.0 | 0.00 | 0.00 | 0.00 | 8 | 1014.8 |
| 20260508021833 | 50 | 0 | 0.0 | 0.0 | 0.00 | 0.00 | 0.00 | 8 | 1014.9 |
| 20260508021332 | 50 | 0 | 0.0 | 0.0 | 0.00 | 0.00 | 0.00 | 8 | 1014.8 |
| 20260508020832 | 50 | 0 | 0.0 | 0.0 | 0.00 | 0.00 | 0.00 | 8 | 1014.8 |
| 20260508020332 | 50 | 0 | 0.0 | 0.0 | 0.00 | 0.00 | 0.00 | 8 | 1014.7 |
| 20260508015831 | 50 | 33 | 0.0 | 1.0 | 0.00 | 0.00 | 0.00 | 8 | 1014.8 |
| 20260508015331 | 50 | 13 | 0.0 | 1.0 | 0.00 | 0.00 | 0.00 | 8 | 1014.9 |
| 20260508014831 | 50 | 0 | 0.0 | 0.0 | 0.00 | 0.00 | 0.00 | 8 | 1014.6 |
| 20260508014330 | 50 | 0 | 0.0 | 0.0 | 0.00 | 0.00 | 0.00 | 8 | 1015.0 |
| 20260508013830 | 50 | 0 | 0.0 | 0.0 | 0.00 | 0.00 | 0.00 | 8 | 1014.9 |
| 20260508013330 | 50 | 326 | 0.0 | 1.0 | 0.00 | 0.00 | 0.00 | 8 | 1014.8 |
| 20260508012829 | 50 | 0 | 0.0 | 0.0 | 0.00 | 0.00 | 0.00 | 8 | 1014.8 |
| 20260508012329 | 50 | 346 | 0.0 | 1.0 | 0.00 | 0.00 | 0.00 | 8 | 1014.7 |
| 20260508011829 | 50 | 298 | 1.0 | 1.0 | 0.00 | 0.00 | 0.00 | 8 | 1014.6 |
| 20260508011328 | 50 | 21 | 0.0 | 1.0 | 0.00 | 0.00 | 0.00 | 8 | 1015.0 |
| 20260508010828 | 50 | 228 | 1.0 | 2.0 | 0.00 | 0.00 | 0.00 | 8 | 1014.7 |
| 20260508010328 | 51 | 0 | 0.0 | 0.0 | 0.00 | 0.00 | 0.00 | 8 | 1014.9 |
| 20260508005827 | 51 | 287 | 0.0 | 2.0 | 0.00 | 0.00 | 0.00 | 8 | 1014.7 |
| 20260508005327 | 51 | 0 | 0.0 | 0.0 | 0.00 | 0.00 | 0.00 | 8 | 1014.5 |
| 20260508004827 | 50 | 0 | 0.0 | 0.0 | 0.00 | 0.00 | 0.00 | 8 | 1014.7 |
| 20260508004326 | 51 | 0 | 0.0 | 0.0 | 0.00 | 0.00 | 0.00 | 8 | 1014.7 |
| 20260508003826 | 50 | 0 | 0.0 | 0.0 | 0.00 | 0.00 | 0.00 | 8 | 1015.0 |
| 20260508003326 | 51 | 0 | 0.0 | 0.0 | 0.00 | 0.00 | 0.00 | 8 | 1014.6 |
| 20260508002825 | 51 | 0 | 0.0 | 0.0 | 0.00 | 0.00 | 0.00 | 8 | 1014.6 |
| 20260508002325 | 51 | 0 | 0.0 | 0.0 | 0.00 | 0.00 | 0.00 | 8 | 1014.8 |
| 20260508001825 | 50 | 348 | 0.0 | 1.0 | 0.00 | 0.00 | 0.00 | 8 | 1014.7 |
| 20260508001324 | 51 | 0 | 0.0 | 0.0 | 0.00 | 0.00 | 0.00 | 8 | 1014.7 |
| 20260508000824 | 51 | 0 | 0.0 | 0.0 | 0.00 | 0.00 | 0.00 | 8 | 1014.5 |
| 20260508000324 | 51 | 0 | 0.0 | 0.0 | 0.00 | 0.00 | 0.00 | 8 | 1014.6 |
| 20260507235823 | 51 | 0 | 0.0 | 0.0 | 0.00 | 0.00 | 0.00 | 8 | 1014.7 |
| 20260507235323 | 51 | 14 | 0.0 | 1.0 | 0.00 | 0.00 | 0.00 | 8 | 1014.5 |
| 20260507234823 | 51 | 4 | 0.0 | 1.0 | 0.00 | 0.00 | 0.00 | 8 | 1014.7 |
| 20260507234322 | 51 | 0 | 0.0 | 0.0 | 0.00 | 0.00 | 0.00 | 8 | 1014.7 |
| 20260507233822 | 51 | 333 | 0.0 | 1.0 | 0.00 | 0.00 | 0.00 | 8 | 1014.6 |
| 20260507233322 | 51 | 0 | 0.0 | 0.0 | 0.00 | 0.00 | 0.00 | 8 | 1014.6 |
| 20260507232821 | 51 | 347 | 0.0 | 1.0 | 0.00 | 0.00 | 0.00 | 8 | 1014.6 |
| 20260507232321 | 51 | 0 | 0.0 | 0.0 | 0.00 | 0.00 | 0.00 | 8 | 1014.7 |
| 20260507231821 | 51 | 322 | 1.0 | 1.0 | 0.00 | 0.00 | 0.00 | 8 | 1014.8 |
| 20260507231320 | 51 | 0 | 0.0 | 0.0 | 0.00 | 0.00 | 0.00 | 8 | 1014.5 |
| 20260507230820 | 51 | 332 | 0.0 | 1.0 | 0.00 | 0.00 | 0.00 | 8 | 1014.8 |
| 20260507230320 | 52 | 340 | 0.0 | 1.0 | 0.00 | 0.00 | 0.00 | 8 | 1014.6 |
| 20260507225819 | 52 | 0 | 0.0 | 0.0 | 0.00 | 0.00 | 0.00 | 8 | 1014.7 |
| 20260507225319 | 52 | 344 | 0.0 | 1.0 | 0.00 | 0.00 | 0.00 | 8 | 1014.6 |
| 20260507224819 | 52 | 344 | 0.0 | 1.0 | 0.00 | 0.00 | 0.00 | 8 | 1014.6 |
| 20260507224318 | 52 | 0 | 0.0 | 0.0 | 0.00 | 0.00 | 0.00 | 8 | 1014.4 |
| 20260507223818 | 52 | 357 | 0.0 | 1.0 | 0.00 | 0.00 | 0.00 | 8 | 1014.4 |
| 20260507223318 | 52 | 0 | 0.0 | 0.0 | 0.00 | 0.00 | 0.00 | 8 | 1014.5 |
| 20260507222817 | 52 | 0 | 0.0 | 0.0 | 0.00 | 0.00 | 0.00 | 8 | 1014.2 |
| 20260507222317 | 52 | 353 | 0.0 | 1.0 | 0.00 | 0.00 | 0.00 | 8 | 1014.3 |
| 20260507221817 | 52 | 0 | 0.0 | 0.0 | 0.00 | 0.00 | 0.00 | 8 | 1014.4 |
| 20260507221316 | 52 | 53 | 0.0 | 1.0 | 0.00 | 0.00 | 0.00 | 8 | 1014.3 |
| 20260507220816 | 52 | 267 | 2.0 | 2.0 | 0.00 | 0.00 | 0.00 | 8 | 1013.9 |
| 20260507220316 | 52 | 9 | 0.0 | 1.0 | 0.00 | 0.00 | 0.00 | 8 | 1014.1 |
| 20260507215815 | 53 | 347 | 0.0 | 1.0 | 0.00 | 0.00 | 0.00 | 8 | 1014.0 |
| 20260507215315 | 53 | 0 | 0.0 | 0.0 | 0.00 | 0.00 | 0.00 | 8 | 1014.2 |
| 20260507214815 | 53 | 0 | 0.0 | 0.0 | 0.00 | 0.00 | 0.00 | 8 | 1013.9 |
| 20260507214314 | 53 | 338 | 0.0 | 1.0 | 0.00 | 0.00 | 0.00 | 8 | 1013.8 |
| 20260507213814 | 53 | 0 | 0.0 | 0.0 | 0.00 | 0.00 | 0.00 | 8 | 1013.7 |
| 20260507213314 | 52 | 355 | 0.0 | 1.0 | 0.00 | 0.00 | 0.00 | 8 | 1013.7 |
| 20260507212813 | 53 | 53 | 0.0 | 1.0 | 0.00 | 0.00 | 0.00 | 8 | 1013.7 |
| 20260507212313 | 53 | 0 | 0.0 | 0.0 | 0.00 | 0.00 | 0.00 | 8 | 1013.8 |
| 20260507211813 | 53 | 0 | 0.0 | 0.0 | 0.00 | 0.00 | 0.00 | 7 | 1014.0 |
| 20260507211312 | 53 | 0 | 0.0 | 0.0 | 0.00 | 0.00 | 0.00 | 7 | 1013.8 |
| 20260507210812 | 53 | 0 | 0.0 | 0.0 | 0.00 | 0.00 | 0.00 | 8 | 1013.8 |
| 20260507210312 | 53 | 334 | 0.0 | 1.0 | 0.00 | 0.00 | 0.00 | 8 | 1013.9 |
| 20260507205811 | 53 | 0 | 0.0 | 0.0 | 0.00 | 0.00 | 0.00 | 7 | 1013.7 |
| 20260507205311 | 53 | 24 | 0.0 | 1.0 | 0.00 | 0.00 | 0.00 | 7 | 1014.1 |
| 20260507204811 | 53 | 347 | 0.0 | 1.0 | 0.00 | 0.00 | 0.00 | 7 | 1013.7 |
| 20260507204310 | 53 | 0 | 0.0 | 0.0 | 0.00 | 0.00 | 0.00 | 7 | 1013.9 |
| 20260507203810 | 53 | 0 | 0.0 | 0.0 | 0.00 | 0.00 | 0.00 | 7 | 1013.6 |
| 20260507203310 | 53 | 0 | 0.0 | 0.0 | 0.00 | 0.00 | 0.00 | 8 | 1013.7 |
| 20260507202809 | 53 | 0 | 0.0 | 0.0 | 0.00 | 0.00 | 0.00 | 7 | 1013.9 |
| 20260507202309 | 54 | 0 | 0.0 | 0.0 | 0.00 | 0.00 | 0.00 | 7 | 1013.8 |
| 20260507201808 | 53 | 0 | 0.0 | 0.0 | 0.00 | 0.00 | 0.00 | 7 | 1013.8 |
| 20260507201308 | 54 | 0 | 0.0 | 0.0 | 0.00 | 0.00 | 0.00 | 7 | 1013.7 |
| 20260507200808 | 54 | 7 | 0.0 | 1.0 | 0.00 | 0.00 | 0.00 | 7 | 1013.7 |
| 20260507200308 | 54 | 21 | 0.0 | 1.0 | 0.00 | 0.00 | 0.00 | 7 | 1013.8 |
| 20260507195807 | 54 | 0 | 0.0 | 0.0 | 0.00 | 0.00 | 0.00 | 7 | 1013.5 |
| 20260507195307 | 54 | 0 | 0.0 | 0.0 | 0.00 | 0.00 | 0.00 | 7 | 1013.7 |
| 20260507194807 | 54 | 357 | 0.0 | 1.0 | 0.00 | 0.00 | 0.00 | 7 | 1013.7 |
| 20260507194306 | 54 | 0 | 0.0 | 0.0 | 0.00 | 0.00 | 0.00 | 7 | 1013.9 |
| 20260507193806 | 54 | 0 | 0.0 | 0.0 | 0.00 | 0.00 | 0.00 | 7 | 1013.7 |
| 20260507193306 | 54 | 0 | 0.0 | 0.0 | 0.00 | 0.00 | 0.00 | 7 | 1013.9 |
| 20260507192805 | 54 | 0 | 0.0 | 0.0 | 0.00 | 0.00 | 0.00 | 7 | 1013.8 |
| 20260507192306 | 54 | 353 | 0.0 | 1.0 | 0.00 | 0.00 | 0.00 | 7 | 1013.2 |
| 20260507191805 | 54 | 1 | 0.0 | 1.0 | 0.00 | 0.00 | 0.00 | 7 | 1013.4 |
| 20260507191304 | 54 | 0 | 0.0 | 0.0 | 0.00 | 0.00 | 0.00 | 7 | 1013.3 |
| 20260507190804 | 54 | 0 | 0.0 | 0.0 | 0.00 | 0.00 | 0.00 | 7 | 1013.5 |
| 20260507190304 | 54 | 0 | 0.0 | 0.0 | 0.00 | 0.00 | 0.00 | 7 | 1013.1 |
| 20260507185803 | 54 | 0 | 0.0 | 0.0 | 0.00 | 0.00 | 0.00 | 7 | 1013.4 |
| 20260507185305 | 54 | 0 | 0.0 | 0.0 | 0.00 | 0.00 | 0.00 | 7 | 1013.4 |
| 20260507184803 | 54 | 297 | 0.0 | 1.0 | 0.00 | 0.00 | 0.00 | 7 | 1013.4 |
| 20260507184302 | 54 | 0 | 0.0 | 0.0 | 0.00 | 0.00 | 0.00 | 7 | 1013.0 |
| 20260507183802 | 54 | 0 | 0.0 | 0.0 | 0.00 | 0.00 | 0.00 | 7 | 1013.2 |
| 20260507183302 | 55 | 0 | 0.0 | 0.0 | 0.00 | 0.00 | 0.00 | 7 | 1013.1 |
| 20260507182801 | 55 | 0 | 0.0 | 0.0 | 0.00 | 0.00 | 0.00 | 7 | 1013.2 |
| 20260507182301 | 55 | 358 | 0.0 | 1.0 | 0.00 | 0.00 | 0.00 | 7 | 1013.2 |
| 20260507181801 | 55 | 0 | 0.0 | 0.0 | 0.00 | 0.00 | 0.00 | 7 | 1013.2 |
| 20260507181300 | 55 | 0 | 0.0 | 0.0 | 0.00 | 0.00 | 0.00 | 7 | 1013.0 |
| 20260507180800 | 55 | 0 | 0.0 | 0.0 | 0.00 | 0.00 | 0.00 | 7 | 1013.0 |
| 20260507180300 | 55 | 0 | 0.0 | 0.0 | 0.00 | 0.00 | 0.00 | 7 | 1012.9 |
| 20260507175759 | 55 | 0 | 0.0 | 0.0 | 0.00 | 0.00 | 0.00 | 7 | 1012.6 |
| 20260507175259 | 55 | 0 | 0.0 | 0.0 | 0.00 | 0.00 | 0.00 | 7 | 1012.5 |
| 20260507174759 | 55 | 0 | 0.0 | 0.0 | 0.00 | 0.00 | 0.00 | 7 | 1012.5 |
| 20260507174258 | 56 | 0 | 0.0 | 0.0 | 0.00 | 0.00 | 0.00 | 7 | 1012.3 |
| 20260507173758 | 56 | 0 | 0.0 | 0.0 | 0.00 | 0.00 | 0.00 | 7 | 1012.3 |
| 20260507173258 | 55 | 0 | 0.0 | 0.0 | 0.00 | 0.00 | 0.00 | 7 | 1012.1 |
| 20260507172757 | 55 | 334 | 0.0 | 1.0 | 0.00 | 0.00 | 0.00 | 7 | 1012.0 |
| 20260507172257 | 55 | 0 | 0.0 | 0.0 | 0.00 | 0.00 | 0.00 | 7 | 1012.0 |
| 20260507171757 | 56 | 0 | 0.0 | 0.0 | 0.00 | 0.00 | 0.00 | 7 | 1011.6 |
| 20260507171256 | 56 | 0 | 0.0 | 0.0 | 0.00 | 0.00 | 0.00 | 7 | 1011.7 |
| 20260507170756 | 56 | 6 | 0.0 | 1.0 | 0.00 | 0.00 | 0.00 | 7 | 1011.7 |
| 20260507170256 | 56 | 323 | 0.0 | 1.0 | 0.00 | 0.00 | 0.00 | 7 | 1011.7 |
| 20260507165755 | 56 | 0 | 0.0 | 0.0 | 0.00 | 0.00 | 0.00 | 7 | 1011.5 |
| 20260507165255 | 56 | 351 | 0.0 | 1.0 | 0.00 | 0.00 | 0.00 | 7 | 1011.4 |
| 20260507164755 | 57 | 20 | 0.0 | 2.0 | 0.00 | 0.00 | 0.00 | 7 | 1011.5 |
| 20260507164254 | 57 | 23 | 0.0 | 1.0 | 0.00 | 0.00 | 0.00 | 7 | 1011.7 |
| 20260507163754 | 56 | 0 | 0.0 | 0.0 | 0.00 | 0.00 | 0.00 | 7 | 1011.4 |
| 20260507163254 | 57 | 5 | 0.0 | 1.0 | 0.00 | 0.00 | 0.00 | 7 | 1011.6 |
| 20260507162753 | 57 | 0 | 0.0 | 0.0 | 0.00 | 0.00 | 0.00 | 7 | 1011.5 |
| 20260507162253 | 57 | 0 | 0.0 | 0.0 | 0.00 | 0.00 | 0.00 | 7 | 1011.6 |
| 20260507161753 | 57 | 245 | 0.0 | 1.0 | 0.00 | 0.00 | 0.00 | 7 | 1011.3 |
| 20260507161252 | 57 | 0 | 0.0 | 0.0 | 0.00 | 0.00 | 0.00 | 7 | 1011.6 |
| 20260507160752 | 57 | 335 | 0.0 | 1.0 | 0.00 | 0.00 | 0.00 | 7 | 1011.6 |
| 20260507160252 | 57 | 0 | 0.0 | 0.0 | 0.00 | 0.00 | 0.00 | 7 | 1011.6 |
| 20260507155751 | 57 | 298 | 0.0 | 1.0 | 0.00 | 0.00 | 0.00 | 7 | 1011.6 |
| 20260507155251 | 57 | 0 | 0.0 | 0.0 | 0.00 | 0.00 | 0.00 | 7 | 1011.7 |
| 20260507154751 | 57 | 0 | 0.0 | 0.0 | 0.00 | 0.00 | 0.00 | 7 | 1011.7 |
| 20260507154250 | 57 | 0 | 0.0 | 0.0 | 0.00 | 0.00 | 0.00 | 7 | 1012.1 |
| 20260507153750 | 57 | 9 | 0.0 | 1.0 | 0.00 | 0.00 | 0.00 | 7 | 1011.8 |
| 20260507153250 | 57 | 0 | 0.0 | 0.0 | 0.00 | 0.00 | 0.00 | 7 | 1011.9 |
| 20260507152749 | 57 | 0 | 0.0 | 0.0 | 0.00 | 0.00 | 0.00 | 7 | 1011.7 |
| 20260507152249 | 57 | 0 | 0.0 | 0.0 | 0.00 | 0.00 | 0.00 | 7 | 1011.6 |
| 20260507151749 | 58 | 202 | 0.0 | 2.0 | 0.00 | 0.00 | 0.00 | 7 | 1011.7 |
| 20260507151248 | 58 | 336 | 0.0 | 1.0 | 0.00 | 0.00 | 0.00 | 7 | 1011.7 |
| 20260507150748 | 58 | 0 | 0.0 | 0.0 | 0.00 | 0.00 | 0.00 | 7 | 1011.6 |
| 20260507150248 | 58 | 332 | 1.0 | 2.0 | 0.00 | 0.00 | 0.00 | 7 | 1011.4 |
| 20260507145747 | 58 | 358 | 0.0 | 2.0 | 0.00 | 0.00 | 0.00 | 7 | 1011.8 |
| 20260507145247 | 59 | 0 | 0.0 | 0.0 | 0.00 | 0.00 | 0.00 | 7 | 1011.6 |
| 20260507144747 | 58 | 354 | 0.0 | 1.0 | 0.00 | 0.00 | 0.00 | 7 | 1011.5 |
| 20260507144246 | 58 | 6 | 0.0 | 1.0 | 0.00 | 0.00 | 0.00 | 7 | 1011.4 |
| 20260507143746 | 58 | 0 | 0.0 | 0.0 | 0.00 | 0.00 | 0.00 | 7 | 1011.6 |
| 20260507143246 | 58 | 46 | 0.0 | 1.0 | 0.00 | 0.00 | 0.00 | 7 | 1011.4 |
| 20260507142745 | 58 | 317 | 1.0 | 1.0 | 0.00 | 0.00 | 0.00 | 7 | 1011.4 |
| 20260507142245 | 58 | 0 | 0.0 | 0.0 | 0.00 | 0.00 | 0.00 | 7 | 1011.4 |
| 20260507141745 | 58 | 355 | 0.0 | 1.0 | 0.00 | 0.00 | 0.00 | 7 | 1011.2 |
| 20260507141244 | 58 | 331 | 0.0 | 1.0 | 0.00 | 0.00 | 0.00 | 7 | 1011.2 |
| 20260507140744 | 58 | 141 | 0.0 | 1.0 | 0.00 | 0.00 | 0.00 | 7 | 1011.2 |
| 20260507140244 | 59 | 275 | 1.0 | 2.0 | 0.00 | 0.00 | 0.00 | 7 | 1011.1 |
| 20260507135743 | 59 | 351 | 0.0 | 1.0 | 0.00 | 0.00 | 0.00 | 7 | 1011.3 |
| 20260507135243 | 59 | 0 | 0.0 | 0.0 | 0.00 | 0.00 | 0.00 | 7 | 1011.1 |
| 20260507134743 | 59 | 0 | 0.0 | 0.0 | 0.00 | 0.00 | 0.00 | 7 | 1011.1 |
| 20260507134242 | 59 | 349 | 0.0 | 1.0 | 0.00 | 0.00 | 0.00 | 7 | 1011.0 |
| 20260507133742 | 59 | 0 | 0.0 | 0.0 | 0.00 | 0.00 | 0.00 | 7 | 1011.3 |
| 20260507133242 | 59 | 344 | 0.0 | 1.0 | 0.00 | 0.00 | 0.00 | 7 | 1011.4 |
| 20260507132741 | 59 | 359 | 0.0 | 1.0 | 0.00 | 0.00 | 0.00 | 7 | 1011.4 |
| 20260507132241 | 59 | 68 | 0.0 | 1.0 | 0.00 | 0.00 | 0.00 | 7 | 1011.0 |
| 20260507131741 | 59 | 0 | 0.0 | 0.0 | 0.00 | 0.00 | 0.00 | 7 | 1010.8 |
| 20260507131240 | 59 | 0 | 0.0 | 0.0 | 0.00 | 0.00 | 0.00 | 7 | 1011.2 |
| 20260507130740 | 58 | 15 | 0.0 | 1.0 | 0.00 | 0.00 | 0.00 | 7 | 1010.8 |
| 20260507130240 | 58 | 249 | 2.0 | 2.0 | 0.00 | 0.00 | 0.00 | 7 | 1010.9 |
| 20260507125739 | 58 | 0 | 0.0 | 0.0 | 0.00 | 0.00 | 0.00 | 7 | 1011.0 |
| 20260507125239 | 58 | 0 | 0.0 | 0.0 | 0.00 | 0.00 | 0.00 | 7 | 1010.9 |
| 20260507124739 | 58 | 352 | 0.0 | 1.0 | 0.00 | 0.00 | 0.00 | 7 | 1011.2 |
| 20260507124238 | 58 | 4 | 0.0 | 1.0 | 0.00 | 0.00 | 0.00 | 7 | 1011.1 |
| 20260507123738 | 58 | 0 | 0.0 | 0.0 | 0.00 | 0.00 | 0.00 | 7 | 1011.1 |
| 20260507123238 | 59 | 201 | 2.0 | 2.0 | 0.00 | 0.00 | 0.00 | 7 | 1011.1 |
| 20260507122737 | 59 | 11 | 0.0 | 1.0 | 0.00 | 0.00 | 0.00 | 7 | 1011.2 |
| 20260507122237 | 59 | 294 | 1.0 | 1.0 | 0.00 | 0.00 | 0.00 | 7 | 1010.9 |
| 20260507121737 | 59 | 343 | 0.0 | 1.0 | 0.00 | 0.00 | 0.00 | 7 | 1010.8 |
| 20260507121236 | 59 | 290 | 0.0 | 1.0 | 0.00 | 0.00 | 0.00 | 7 | 1011.1 |
| 20260507120736 | 59 | 350 | 0.0 | 1.0 | 0.00 | 0.00 | 0.00 | 7 | 1010.9 |
| 20260507120236 | 59 | 8 | 0.0 | 1.0 | 0.00 | 0.00 | 0.00 | 7 | 1011.1 |
| 20260507115735 | 59 | 0 | 0.0 | 0.0 | 0.00 | 0.00 | 0.00 | 7 | 1011.0 |
| 20260507115235 | 59 | 345 | 0.0 | 1.0 | 0.00 | 0.00 | 0.00 | 7 | 1011.0 |
| 20260507114735 | 59 | 0 | 0.0 | 0.0 | 0.00 | 0.00 | 0.00 | 7 | 1010.8 |
| 20260507114234 | 59 | 0 | 0.0 | 0.0 | 0.00 | 0.00 | 0.00 | 7 | 1010.8 |
| 20260507113734 | 58 | 0 | 0.0 | 1.0 | 0.00 | 0.00 | 0.00 | 8 | 1010.9 |
| 20260507113234 | 57 | 0 | 0.0 | 0.0 | 0.00 | 0.00 | 0.00 | 8 | 1010.8 |
| 20260507112733 | 58 | 220 | 1.0 | 2.0 | 0.00 | 0.00 | 0.00 | 8 | 1010.7 |
| 20260507112233 | 57 | 0 | 0.0 | 0.0 | 0.00 | 0.00 | 0.00 | 8 | 1010.8 |
| 20260507111733 | 55 | 0 | 0.0 | 0.0 | 0.00 | 0.00 | 0.00 | 8 | 1010.8 |
| 20260507111232 | 56 | 305 | 0.0 | 1.0 | 0.00 | 0.00 | 0.00 | 8 | 1010.6 |
| 20260507110732 | 56 | 246 | 1.0 | 2.0 | 0.00 | 0.00 | 0.00 | 8 | 1010.7 |
| 20260507110232 | 56 | 351 | 1.0 | 2.0 | 0.00 | 0.00 | 0.00 | 8 | 1010.6 |
| 20260507105731 | 56 | 337 | 0.0 | 1.0 | 0.00 | 0.00 | 0.00 | 8 | 1010.6 |
| 20260507105231 | 56 | 346 | 0.0 | 1.0 | 0.00 | 0.00 | 0.00 | 8 | 1010.6 |
| 20260507104731 | 55 | 0 | 0.0 | 0.0 | 0.00 | 0.00 | 0.00 | 8 | 1010.5 |
| 20260507104230 | 55 | 0 | 0.0 | 0.0 | 0.00 | 0.00 | 0.00 | 8 | 1010.4 |
| 20260507103730 | 56 | 335 | 0.0 | 1.0 | 0.00 | 0.00 | 0.00 | 8 | 1010.1 |
| 20260507103230 | 56 | 0 | 0.0 | 0.0 | 0.00 | 0.00 | 0.00 | 8 | 1010.3 |
| 20260507102729 | 56 | 0 | 0.0 | 0.0 | 0.00 | 0.00 | 0.00 | 8 | 1010.6 |
| 20260507102229 | 56 | 0 | 0.0 | 0.0 | 0.00 | 0.00 | 0.00 | 8 | 1010.2 |
| 20260507101729 | 56 | 0 | 0.0 | 0.0 | 0.00 | 0.00 | 0.00 | 8 | 1010.1 |
| 20260507101228 | 56 | 0 | 0.0 | 0.0 | 0.00 | 0.00 | 0.00 | 8 | 1009.9 |
| 20260507100728 | 56 | 0 | 0.0 | 0.0 | 0.00 | 0.00 | 0.00 | 8 | 1010.1 |
| 20260507100228 | 56 | 307 | 0.0 | 1.0 | 0.00 | 0.00 | 0.00 | 8 | 1010.0 |
| 20260507095727 | 56 | 16 | 0.0 | 1.0 | 0.00 | 0.00 | 0.00 | 8 | 1009.8 |
| 20260507095227 | 56 | 307 | 1.0 | 2.0 | 0.00 | 0.00 | 0.00 | 8 | 1009.9 |
| 20260507094727 | 57 | 355 | 0.0 | 1.0 | 0.00 | 0.00 | 0.00 | 8 | 1009.7 |
| 20260507094226 | 57 | 0 | 0.0 | 0.0 | 0.00 | 0.00 | 0.00 | 8 | 1009.5 |
| 20260507093726 | 57 | 326 | 0.0 | 1.0 | 0.00 | 0.00 | 0.00 | 8 | 1009.5 |
| 20260507093226 | 57 | 0 | 0.0 | 0.0 | 0.00 | 0.00 | 0.00 | 8 | 1009.6 |
| 20260507092725 | 57 | 0 | 0.0 | 0.0 | 0.00 | 0.00 | 0.00 | 8 | 1009.5 |
| 20260507092225 | 57 | 0 | 0.0 | 0.0 | 0.00 | 0.00 | 0.00 | 8 | 1009.5 |
| 20260507091725 | 57 | 350 | 0.0 | 1.0 | 0.00 | 0.00 | 0.00 | 8 | 1009.7 |
| 20260507091224 | 57 | 7 | 0.0 | 1.0 | 0.00 | 0.00 | 0.00 | 8 | 1009.4 |
| 20260507090724 | 57 | 318 | 0.0 | 1.0 | 0.00 | 0.00 | 0.00 | 8 | 1009.2 |
| 20260507090224 | 57 | 323 | 0.0 | 1.0 | 0.00 | 0.00 | 0.00 | 8 | 1009.3 |
| 20260507085723 | 57 | 0 | 0.0 | 0.0 | 0.00 | 0.00 | 0.00 | 8 | 1009.4 |
| 20260507085223 | 57 | 344 | 0.0 | 1.0 | 0.00 | 0.00 | 0.00 | 8 | 1009.1 |
| 20260507084723 | 58 | 5 | 0.0 | 2.0 | 0.00 | 0.00 | 0.00 | 8 | 1008.8 |
| 20260507084222 | 58 | 341 | 0.0 | 1.0 | 0.00 | 0.00 | 0.00 | 8 | 1008.8 |
| 20260507083722 | 59 | 0 | 0.0 | 0.0 | 0.00 | 0.00 | 0.00 | 8 | 1008.9 |
| 20260507083222 | 59 | 0 | 0.0 | 0.0 | 0.00 | 0.00 | 0.00 | 8 | 1008.8 |
| 20260507082721 | 59 | 265 | 0.0 | 1.0 | 0.00 | 0.00 | 0.00 | 8 | 1008.6 |
| 20260507082221 | 59 | 0 | 0.0 | 0.0 | 0.00 | 0.00 | 0.00 | 8 | 1008.6 |
| 20260507081721 | 59 | 0 | 0.0 | 0.0 | 0.00 | 0.00 | 0.00 | 8 | 1008.4 |
| 20260507081220 | 59 | 0 | 0.0 | 0.0 | 0.00 | 0.00 | 0.00 | 8 | 1008.4 |
| 20260507080720 | 59 | 0 | 0.0 | 0.0 | 0.00 | 0.00 | 0.00 | 8 | 1008.3 |
| 20260507080220 | 59 | 0 | 0.0 | 0.0 | 0.00 | 0.00 | 0.00 | 8 | 1008.4 |
| 20260507075719 | 58 | 0 | 0.0 | 0.0 | 0.00 | 0.00 | 0.00 | 8 | 1008.4 |
| 20260507075219 | 59 | 0 | 0.0 | 0.0 | 0.00 | 0.00 | 0.00 | 8 | 1008.3 |
| 20260507074719 | 59 | 0 | 0.0 | 0.0 | 0.00 | 0.00 | 0.00 | 8 | 1008.2 |
| 20260507074219 | 59 | 0 | 0.0 | 0.0 | 0.00 | 0.00 | 0.00 | 8 | 1008.1 |
| 20260507073718 | 59 | 312 | 2.0 | 2.0 | 0.00 | 0.00 | 0.00 | 8 | 1008.1 |
| 20260507073218 | 59 | 354 | 1.0 | 2.0 | 0.00 | 0.00 | 0.00 | 8 | 1008.0 |
| 20260507072717 | 59 | 345 | 0.0 | 1.0 | 0.00 | 0.00 | 0.00 | 8 | 1008.0 |
| 20260507072217 | 59 | 323 | 0.0 | 1.0 | 0.00 | 0.00 | 0.00 | 8 | 1007.7 |
| 20260507071717 | 59 | 0 | 0.0 | 0.0 | 0.00 | 0.00 | 0.00 | 8 | 1007.7 |
| 20260507071216 | 59 | 345 | 0.0 | 1.0 | 0.00 | 0.00 | 0.00 | 8 | 1007.8 |
| 20260507070716 | 59 | 352 | 0.0 | 1.0 | 0.00 | 0.00 | 0.00 | 8 | 1007.7 |
| 20260507070216 | 59 | 0 | 0.0 | 0.0 | 0.00 | 0.00 | 0.00 | 8 | 1007.8 |
| 20260507065715 | 59 | 340 | 0.0 | 1.0 | 0.00 | 0.00 | 0.00 | 8 | 1007.7 |
| 20260507065215 | 59 | 21 | 0.0 | 1.0 | 0.00 | 0.00 | 0.00 | 8 | 1007.8 |
| 20260507064715 | 60 | 0 | 0.0 | 0.0 | 0.00 | 0.00 | 0.00 | 8 | 1007.6 |
| 20260507064214 | 60 | 0 | 0.0 | 0.0 | 0.00 | 0.00 | 0.00 | 8 | 1007.6 |
| 20260507063714 | 59 | 333 | 0.0 | 1.0 | 0.00 | 0.00 | 0.00 | 8 | 1007.5 |
| 20260507063214 | 60 | 0 | 0.0 | 0.0 | 0.00 | 0.00 | 0.00 | 8 | 1006.9 |
| 20260507062713 | 60 | 76 | 0.0 | 1.0 | 0.00 | 0.00 | 0.00 | 8 | 1007.3 |
| 20260507062213 | 59 | 0 | 0.0 | 0.0 | 0.00 | 0.00 | 0.00 | 8 | 1007.0 |